Time,TemperatureF,DewpointF,PressureIn,WindDirection,WindDirectionDegrees,WindSpeedMPH,WindSpeedGustMPH,Humidity,HourlyPrecipIn,Conditions,Clouds,dailyrainin,SoftwareType,DateUTC
2013-02-15 00:00:00,31.9,27.0,30.10,WNW,295,2.0,5.0,82,0.00,,---,0.00,VWS V14.01,2013-02-15 05:00:00,
2013-02-15 00:05:00,32.0,27.1,30.10,NW,304,4.0,4.0,82,0.00,,---,0.00,VWS V14.01,2013-02-15 05:05:00,
2013-02-15 00:10:00,32.0,27.1,30.11,WNW,287,0.0,4.0,82,0.00,,---,0.00,VWS V14.01,2013-02-15 05:10:00,
2013-02-15 00:15:00,32.2,27.3,30.11,WNW,298,1.0,5.0,82,0.00,,---,0.00,VWS V14.01,2013-02-15 05:15:00,
2013-02-15 00:21:00,32.2,27.0,30.11,West,267,2.0,2.0,81,0.00,,---,0.00,VWS V14.01,2013-02-15 05:21:00,
2013-02-15 00:26:00,32.1,26.9,30.11,WNW,289,1.0,4.0,81,0.00,,---,0.00,VWS V14.01,2013-02-15 05:26:00,
2013-02-15 00:31:00,32.0,27.1,30.11,NW,308,2.0,3.0,82,0.00,,---,0.00,VWS V14.01,2013-02-15 05:31:00,
2013-02-15 00:36:00,32.1,27.2,30.11,WNW,286,3.0,3.0,82,0.00,,---,0.00,VWS V14.01,2013-02-15 05:36:00,
2013-02-15 00:41:00,32.3,27.4,30.11,WSW,253,2.0,4.0,82,0.00,,---,0.00,VWS V14.01,2013-02-15 05:41:00,
2013-02-15 00:46:00,32.3,27.4,30.11,NW,307,2.0,2.0,82,0.00,,---,0.00,VWS V14.01,2013-02-15 05:46:00,
2013-02-15 00:51:00,32.2,27.6,30.11,NW,305,2.0,3.0,83,0.00,,---,0.00,VWS V14.01,2013-02-15 05:51:00,
2013-02-15 00:56:00,32.2,27.3,30.11,WNW,291,1.0,5.0,82,0.00,,---,0.00,VWS V14.01,2013-02-15 05:56:00,
2013-02-15 01:01:00,32.2,27.6,30.12,WNW,299,1.0,3.0,83,0.00,,---,0.00,VWS V14.01,2013-02-15 06:01:00,
2013-02-15 01:06:00,32.2,27.3,30.11,NW,313,3.0,6.0,82,0.00,,---,0.00,VWS V14.01,2013-02-15 06:06:00,
2013-02-15 01:11:00,32.1,27.5,30.11,WNW,303,2.0,4.0,83,0.00,,---,0.00,VWS V14.01,2013-02-15 06:11:00,
2013-02-15 01:16:00,32.2,27.6,30.11,NW,320,2.0,4.0,83,0.00,,---,0.00,VWS V14.01,2013-02-15 06:16:00,
2013-02-15 01:21:00,32.0,27.4,30.11,WNW,299,2.0,5.0,83,0.00,,---,0.00,VWS V14.01,2013-02-15 06:21:00,
2013-02-15 01:26:00,32.1,27.5,30.11,NW,326,3.0,5.0,83,0.00,,---,0.00,VWS V14.01,2013-02-15 06:26:00,
2013-02-15 01:31:00,32.0,27.4,30.10,WNW,299,2.0,5.0,83,0.00,,---,0.00,VWS V14.01,2013-02-15 06:31:00,
2013-02-15 01:36:00,32.0,27.4,30.11,WNW,300,4.0,4.0,83,0.00,,---,0.00,VWS V14.01,2013-02-15 06:36:00,
2013-02-15 01:41:00,32.1,27.5,30.11,NW,325,2.0,3.0,83,0.00,,---,0.00,VWS V14.01,2013-02-15 06:41:00,
2013-02-15 01:46:00,32.0,27.4,30.11,NW,305,4.0,4.0,83,0.00,,---,0.00,VWS V14.01,2013-02-15 06:46:00,
2013-02-15 01:51:00,31.9,27.3,30.10,NW,307,1.0,4.0,83,0.00,,---,0.00,VWS V14.01,2013-02-15 06:51:00,
2013-02-15 01:56:00,31.9,27.3,30.10,WNW,284,2.0,4.0,83,0.00,,---,0.00,VWS V14.01,2013-02-15 06:56:00,
2013-02-15 02:01:00,31.7,27.1,30.10,WNW,288,0.0,3.0,83,0.00,,---,0.00,VWS V14.01,2013-02-15 07:01:00,
2013-02-15 02:06:00,31.7,27.1,30.10,NW,324,2.0,4.0,83,0.00,,---,0.00,VWS V14.01,2013-02-15 07:06:00,
2013-02-15 02:11:00,31.7,27.1,30.10,WNW,301,1.0,4.0,83,0.00,,---,0.00,VWS V14.01,2013-02-15 07:11:00,
2013-02-15 02:16:00,31.5,26.9,30.10,NW,313,3.0,4.0,83,0.00,,---,0.00,VWS V14.01,2013-02-15 07:16:00,
2013-02-15 02:21:00,31.5,27.2,30.10,WNW,303,2.0,5.0,84,0.00,,---,0.00,VWS V14.01,2013-02-15 07:21:00,
2013-02-15 02:26:00,31.6,27.3,30.10,WNW,298,5.0,5.0,84,0.00,,---,0.00,VWS V14.01,2013-02-15 07:26:00,
2013-02-15 02:31:00,31.5,27.2,30.10,WNW,291,2.0,2.0,84,0.00,,---,0.00,VWS V14.01,2013-02-15 07:31:00,
2013-02-15 02:36:00,31.4,27.1,30.10,NW,306,3.0,4.0,84,0.00,,---,0.00,VWS V14.01,2013-02-15 07:36:00,
2013-02-15 02:41:00,31.2,26.9,30.10,NW,324,2.0,4.0,84,0.00,,---,0.00,VWS V14.01,2013-02-15 07:41:00,
2013-02-15 02:46:00,31.2,27.2,30.09,WNW,301,2.0,4.0,85,0.00,,---,0.00,VWS V14.01,2013-02-15 07:46:00,
2013-02-15 02:51:00,31.3,27.0,30.09,NW,320,1.0,4.0,84,0.00,,---,0.00,VWS V14.01,2013-02-15 07:51:00,
2013-02-15 02:56:00,31.1,27.1,30.10,NW,326,1.0,4.0,85,0.00,,---,0.00,VWS V14.01,2013-02-15 07:56:00,
2013-02-15 03:01:00,31.3,27.3,30.10,WNW,285,2.0,3.0,85,0.00,,---,0.00,VWS V14.01,2013-02-15 08:01:00,
2013-02-15 03:06:00,31.4,27.4,30.10,NW,310,1.0,1.0,85,0.00,,---,0.00,VWS V14.01,2013-02-15 08:06:00,
2013-02-15 03:11:00,31.5,27.5,30.10,NW,320,1.0,4.0,85,0.00,,---,0.00,VWS V14.01,2013-02-15 08:11:00,
2013-02-15 03:16:00,31.6,27.6,30.10,WNW,285,3.0,3.0,85,0.00,,---,0.00,VWS V14.01,2013-02-15 08:16:00,
2013-02-15 03:21:00,31.7,27.7,30.10,WNW,302,2.0,4.0,85,0.00,,---,0.00,VWS V14.01,2013-02-15 08:21:00,
2013-02-15 03:26:00,31.8,27.8,30.10,WNW,282,3.0,3.0,85,0.00,,---,0.00,VWS V14.01,2013-02-15 08:26:00,
2013-02-15 03:31:00,31.8,27.5,30.10,NW,312,1.0,2.0,84,0.00,,---,0.00,VWS V14.01,2013-02-15 08:31:00,
2013-02-15 03:36:00,31.8,27.8,30.10,WNW,301,4.0,4.0,85,0.00,,---,0.00,VWS V14.01,2013-02-15 08:36:00,
2013-02-15 03:41:00,31.8,27.5,30.10,NW,315,1.0,2.0,84,0.00,,---,0.00,VWS V14.01,2013-02-15 08:41:00,
2013-02-15 03:46:00,32.0,28.0,30.10,WNW,289,2.0,2.0,85,0.00,,---,0.00,VWS V14.01,2013-02-15 08:46:00,
2013-02-15 03:51:00,32.2,27.9,30.10,NW,311,1.0,2.0,84,0.00,,---,0.00,VWS V14.01,2013-02-15 08:51:00,
2013-02-15 03:56:00,32.3,28.0,30.11,NW,310,0.0,1.0,84,0.00,,---,0.00,VWS V14.01,2013-02-15 08:56:00,
2013-02-15 04:01:00,32.4,28.1,30.11,NW,308,1.0,2.0,84,0.00,,---,0.00,VWS V14.01,2013-02-15 09:01:00,
2013-02-15 04:06:00,32.5,28.2,30.10,NW,308,2.0,2.0,84,0.00,,---,0.00,VWS V14.01,2013-02-15 09:06:00,
2013-02-15 04:11:00,32.4,27.8,30.10,NW,307,0.0,2.0,83,0.00,,---,0.00,VWS V14.01,2013-02-15 09:11:00,
2013-02-15 04:16:00,32.2,27.9,30.10,WNW,299,0.0,4.0,84,0.00,,---,0.00,VWS V14.01,2013-02-15 09:16:00,
2013-02-15 04:21:00,32.2,27.9,30.10,WNW,293,2.0,4.0,84,0.00,,---,0.00,VWS V14.01,2013-02-15 09:21:00,
2013-02-15 04:26:00,32.3,28.0,30.10,NW,305,1.0,3.0,84,0.00,,---,0.00,VWS V14.01,2013-02-15 09:26:00,
2013-02-15 04:31:00,32.4,28.1,30.10,NW,322,2.0,4.0,84,0.00,,---,0.00,VWS V14.01,2013-02-15 09:31:00,
2013-02-15 04:36:00,32.4,28.4,30.10,WNW,302,0.0,4.0,85,0.00,,---,0.00,VWS V14.01,2013-02-15 09:36:00,
2013-02-15 04:41:00,32.6,28.3,30.09,WNW,295,2.0,2.0,84,0.00,,---,0.00,VWS V14.01,2013-02-15 09:41:00,
2013-02-15 04:46:00,32.6,28.3,30.09,NW,312,3.0,4.0,84,0.00,,---,0.00,VWS V14.01,2013-02-15 09:46:00,
2013-02-15 04:51:00,32.7,28.4,30.10,NW,309,1.0,3.0,84,0.00,,---,0.00,VWS V14.01,2013-02-15 09:51:00,
2013-02-15 04:56:00,32.8,28.5,30.10,NW,311,1.0,3.0,84,0.00,,---,0.00,VWS V14.01,2013-02-15 09:56:00,
2013-02-15 05:01:00,32.7,28.4,30.10,WNW,286,1.0,3.0,84,0.00,,---,0.00,VWS V14.01,2013-02-15 10:01:00,
2013-02-15 05:06:00,32.6,28.3,30.10,NW,304,1.0,3.0,84,0.00,,---,0.00,VWS V14.01,2013-02-15 10:06:00,
2013-02-15 05:11:00,32.6,28.3,30.10,NW,309,1.0,3.0,84,0.00,,---,0.00,VWS V14.01,2013-02-15 10:11:00,
2013-02-15 05:16:00,32.5,28.2,30.10,WNW,303,1.0,3.0,84,0.00,,---,0.00,VWS V14.01,2013-02-15 10:16:00,
2013-02-15 05:21:00,32.6,28.6,30.10,WNW,283,0.0,2.0,85,0.00,,---,0.00,VWS V14.01,2013-02-15 10:21:00,
2013-02-15 05:26:00,32.6,28.3,30.10,NW,312,2.0,3.0,84,0.00,,---,0.00,VWS V14.01,2013-02-15 10:26:00,
2013-02-15 05:31:00,32.5,28.5,30.10,WNW,302,2.0,4.0,85,0.00,,---,0.00,VWS V14.01,2013-02-15 10:31:00,
2013-02-15 05:36:00,32.6,28.6,30.10,WNW,301,1.0,3.0,85,0.00,,---,0.00,VWS V14.01,2013-02-15 10:36:00,
2013-02-15 05:41:00,32.5,28.5,30.10,West,280,2.0,4.0,85,0.00,,---,0.00,VWS V14.01,2013-02-15 10:41:00,
2013-02-15 05:46:00,32.4,28.1,30.10,WNW,303,4.0,4.0,84,0.00,,---,0.00,VWS V14.01,2013-02-15 10:46:00,
2013-02-15 05:51:00,32.3,28.3,30.10,WNW,293,2.0,3.0,85,0.00,,---,0.00,VWS V14.01,2013-02-15 10:51:00,
2013-02-15 05:56:00,32.2,28.2,30.10,NW,314,3.0,5.0,85,0.00,,---,0.00,VWS V14.01,2013-02-15 10:56:00,
2013-02-15 06:01:00,32.2,28.2,30.10,NW,306,4.0,4.0,85,0.00,,---,0.00,VWS V14.01,2013-02-15 11:01:00,
2013-02-15 06:06:00,32.1,28.1,30.10,NNW,328,1.0,4.0,85,0.00,,---,0.00,VWS V14.01,2013-02-15 11:06:00,
2013-02-15 06:11:00,32.1,28.4,30.11,NW,315,4.0,4.0,86,0.00,,---,0.00,VWS V14.01,2013-02-15 11:11:00,
2013-02-15 06:16:00,32.1,28.4,30.11,NW,313,2.0,4.0,86,0.00,,---,0.00,VWS V14.01,2013-02-15 11:16:00,
2013-02-15 06:21:00,32.3,28.6,30.11,WSW,257,1.0,1.0,86,0.00,,---,0.00,VWS V14.01,2013-02-15 11:21:00,
2013-02-15 06:26:00,32.2,28.5,30.11,WNW,297,3.0,4.0,86,0.00,,---,0.00,VWS V14.01,2013-02-15 11:26:00,
2013-02-15 06:31:00,32.0,28.3,30.12,West,275,2.0,3.0,86,0.00,,---,0.00,VWS V14.01,2013-02-15 11:31:00,
2013-02-15 06:36:00,32.1,28.4,30.12,WNW,286,3.0,3.0,86,0.00,,---,0.00,VWS V14.01,2013-02-15 11:36:00,
2013-02-15 06:41:00,32.2,28.5,30.12,WNW,288,3.0,4.0,86,0.00,,---,0.00,VWS V14.01,2013-02-15 11:41:00,
2013-02-15 06:46:00,32.1,28.1,30.12,West,274,2.0,2.0,85,0.00,,---,0.00,VWS V14.01,2013-02-15 11:46:00,
2013-02-15 06:51:00,32.3,28.3,30.12,WNW,284,2.0,2.0,85,0.00,,---,0.00,VWS V14.01,2013-02-15 11:51:00,
2013-02-15 06:56:00,32.3,28.3,30.13,WNW,282,1.0,2.0,85,0.00,,---,0.00,VWS V14.01,2013-02-15 11:56:00,
2013-02-15 07:01:00,32.6,28.6,30.13,West,276,3.0,3.0,85,0.00,,---,0.00,VWS V14.01,2013-02-15 12:01:00,
2013-02-15 07:06:00,32.4,28.1,30.13,West,275,1.0,3.0,84,0.00,,---,0.00,VWS V14.01,2013-02-15 12:06:00,
2013-02-15 07:11:00,32.2,28.2,30.13,West,275,2.0,2.0,85,0.00,,---,0.00,VWS V14.01,2013-02-15 12:11:00,
2013-02-15 07:16:00,32.1,28.1,30.13,West,275,0.0,1.0,85,0.00,,---,0.00,VWS V14.01,2013-02-15 12:16:00,
2013-02-15 07:21:00,32.1,28.1,30.13,West,275,1.0,1.0,85,0.00,,---,0.00,VWS V14.01,2013-02-15 12:21:00,
2013-02-15 07:26:00,32.5,28.2,30.13,West,275,1.0,2.0,84,0.00,,---,0.00,VWS V14.01,2013-02-15 12:26:00,
2013-02-15 07:31:00,32.8,28.5,30.13,West,275,1.0,1.0,84,0.00,,---,0.00,VWS V14.01,2013-02-15 12:31:00,
2013-02-15 07:36:00,33.0,28.4,30.13,West,275,0.0,0.0,83,0.00,,---,0.00,VWS V14.01,2013-02-15 12:36:00,
2013-02-15 07:41:00,33.2,28.6,30.13,West,275,0.0,0.0,83,0.00,,---,0.00,VWS V14.01,2013-02-15 12:41:00,
2013-02-15 07:46:00,33.9,29.0,30.13,West,275,0.0,0.0,82,0.00,,---,0.00,VWS V14.01,2013-02-15 12:46:00,
2013-02-15 07:51:00,34.1,28.9,30.13,West,275,0.0,0.0,81,0.00,,---,0.00,VWS V14.01,2013-02-15 12:51:00,
2013-02-15 07:56:00,34.3,29.1,30.13,West,275,0.0,0.0,81,0.00,,---,0.00,VWS V14.01,2013-02-15 12:56:00,
2013-02-15 08:01:00,34.7,29.5,30.13,West,275,0.0,0.0,81,0.00,,---,0.00,VWS V14.01,2013-02-15 13:01:00,
2013-02-15 08:06:00,35.2,29.4,30.13,West,275,0.0,0.0,79,0.00,,---,0.00,VWS V14.01,2013-02-15 13:06:00,
2013-02-15 08:11:00,35.8,29.3,30.13,West,275,0.0,0.0,77,0.00,,---,0.00,VWS V14.01,2013-02-15 13:11:00,
2013-02-15 08:16:00,36.4,30.2,30.13,West,278,2.0,3.0,78,0.00,,---,0.00,VWS V14.01,2013-02-15 13:16:00,
2013-02-15 08:21:00,36.7,29.5,30.13,West,275,1.0,1.0,75,0.00,,---,0.00,VWS V14.01,2013-02-15 13:21:00,
2013-02-15 08:26:00,37.0,30.1,30.14,NW,306,1.0,2.0,76,0.00,,---,0.00,VWS V14.01,2013-02-15 13:26:00,
2013-02-15 08:31:00,37.5,30.0,30.14,West,278,1.0,3.0,74,0.00,,---,0.00,VWS V14.01,2013-02-15 13:31:00,
2013-02-15 08:36:00,37.5,31.0,30.14,West,280,3.0,3.0,77,0.00,,---,0.00,VWS V14.01,2013-02-15 13:36:00,
2013-02-15 08:41:00,38.0,31.1,30.14,WNW,297,1.0,2.0,76,0.00,,---,0.00,VWS V14.01,2013-02-15 13:41:00,
2013-02-15 08:46:00,38.5,32.2,30.14,West,268,4.0,4.0,78,0.00,,---,0.00,VWS V14.01,2013-02-15 13:46:00,
2013-02-15 08:51:00,38.7,31.1,30.14,WNW,287,4.0,4.0,74,0.00,,---,0.00,VWS V14.01,2013-02-15 13:51:00,
2013-02-15 08:56:00,39.3,31.4,30.14,West,277,3.0,3.0,73,0.00,,---,0.00,VWS V14.01,2013-02-15 13:56:00,
2013-02-15 09:01:00,40.3,32.3,30.14,West,279,2.0,4.0,73,0.00,,---,0.00,VWS V14.01,2013-02-15 14:01:00,
2013-02-15 09:06:00,40.4,31.4,30.14,West,280,2.0,2.0,70,0.00,,---,0.00,VWS V14.01,2013-02-15 14:06:00,
2013-02-15 09:11:00,41.0,31.3,30.14,WNW,296,2.0,2.0,68,0.00,,---,0.00,VWS V14.01,2013-02-15 14:11:00,
2013-02-15 09:16:00,41.5,31.7,30.13,WNW,296,0.0,2.0,68,0.00,,---,0.00,VWS V14.01,2013-02-15 14:16:00,
2013-02-15 09:21:00,41.6,32.2,30.13,WNW,302,1.0,1.0,69,0.00,,---,0.00,VWS V14.01,2013-02-15 14:21:00,
2013-02-15 09:26:00,42.3,33.9,30.13,WNW,284,2.0,2.0,72,0.00,,---,0.00,VWS V14.01,2013-02-15 14:26:00,
2013-02-15 09:31:00,41.7,31.9,30.13,WNW,284,1.0,2.0,68,0.00,,---,0.00,VWS V14.01,2013-02-15 14:31:00,
2013-02-15 09:36:00,41.6,31.5,30.13,NW,305,2.0,2.0,67,0.00,,---,0.00,VWS V14.01,2013-02-15 14:36:00,
2013-02-15 09:41:00,41.9,31.0,30.13,WNW,292,2.0,2.0,65,0.00,,---,0.00,VWS V14.01,2013-02-15 14:41:00,
2013-02-15 09:46:00,43.2,32.6,30.12,WNW,292,2.0,2.0,66,0.00,,---,0.00,VWS V14.01,2013-02-15 14:46:00,
2013-02-15 09:51:00,43.3,32.3,30.12,West,273,0.0,1.0,65,0.00,,---,0.00,VWS V14.01,2013-02-15 14:51:00,
2013-02-15 09:56:00,43.0,30.5,30.12,WSW,249,2.0,2.0,61,0.00,,---,0.00,VWS V14.01,2013-02-15 14:56:00,
2013-02-15 10:01:00,43.1,31.0,30.12,WNW,299,2.0,2.0,62,0.00,,---,0.00,VWS V14.01,2013-02-15 15:01:00,
2013-02-15 10:06:00,43.9,31.3,30.12,WNW,284,4.0,4.0,61,0.00,,---,0.00,VWS V14.01,2013-02-15 15:06:00,
2013-02-15 10:11:00,43.5,30.1,30.12,WNW,303,0.0,1.0,59,0.00,,---,0.00,VWS V14.01,2013-02-15 15:11:00,
2013-02-15 10:16:00,45.4,32.8,30.12,WNW,284,0.0,1.0,61,0.00,,---,0.00,VWS V14.01,2013-02-15 15:16:00,
2013-02-15 10:21:00,46.3,31.9,30.12,WNW,291,2.0,3.0,57,0.00,,---,0.00,VWS V14.01,2013-02-15 15:21:00,
2013-02-15 10:26:00,45.7,30.5,30.12,NW,320,0.0,1.0,55,0.00,,---,0.00,VWS V14.01,2013-02-15 15:26:00,
2013-02-15 10:31:00,45.5,30.7,30.12,WSW,250,3.0,3.0,56,0.00,,---,0.00,VWS V14.01,2013-02-15 15:31:00,
2013-02-15 10:36:00,46.0,30.3,30.12,WSW,242,3.0,3.0,54,0.00,,---,0.00,VWS V14.01,2013-02-15 15:36:00,
2013-02-15 10:41:00,46.3,31.0,30.12,WNW,291,0.0,3.0,55,0.00,,---,0.00,VWS V14.01,2013-02-15 15:41:00,
2013-02-15 10:46:00,46.7,31.4,30.12,WNW,282,1.0,3.0,55,0.00,,---,0.00,VWS V14.01,2013-02-15 15:46:00,
2013-02-15 10:51:00,47.6,31.3,30.12,WNW,283,0.0,2.0,53,0.00,,---,0.00,VWS V14.01,2013-02-15 15:51:00,
2013-02-15 10:56:00,47.6,30.4,30.12,WSW,245,0.0,2.0,51,0.00,,---,0.00,VWS V14.01,2013-02-15 15:56:00,
2013-02-15 11:01:00,48.1,29.9,30.12,West,272,0.0,1.0,49,0.00,,---,0.00,VWS V14.01,2013-02-15 16:01:00,
2013-02-15 11:06:00,48.2,30.5,30.11,WSW,253,1.0,3.0,50,0.00,,---,0.00,VWS V14.01,2013-02-15 16:06:00,
2013-02-15 11:11:00,48.3,30.5,30.12,West,268,1.0,3.0,50,0.00,,---,0.00,VWS V14.01,2013-02-15 16:11:00,
2013-02-15 11:16:00,48.6,31.3,30.11,West,262,1.0,1.0,51,0.00,,---,0.00,VWS V14.01,2013-02-15 16:16:00,
2013-02-15 11:21:00,48.6,31.8,30.11,WSW,242,2.0,5.0,52,0.00,,---,0.00,VWS V14.01,2013-02-15 16:21:00,
2013-02-15 11:26:00,49.1,30.3,30.11,WSW,242,5.0,7.0,48,0.00,,---,0.00,VWS V14.01,2013-02-15 16:26:00,
2013-02-15 11:31:00,49.0,31.2,30.11,West,264,4.0,4.0,50,0.00,,---,0.00,VWS V14.01,2013-02-15 16:31:00,
2013-02-15 11:36:00,49.1,29.8,30.11,West,280,1.0,2.0,47,0.00,,---,0.00,VWS V14.01,2013-02-15 16:36:00,
2013-02-15 11:41:00,48.6,30.3,30.11,WSW,242,1.0,1.0,49,0.00,,---,0.00,VWS V14.01,2013-02-15 16:41:00,
2013-02-15 11:46:00,49.6,31.2,30.11,NW,305,0.0,2.0,49,0.00,,---,0.00,VWS V14.01,2013-02-15 16:46:00,
2013-02-15 11:51:00,49.9,31.5,30.11,West,265,1.0,3.0,49,0.00,,---,0.00,VWS V14.01,2013-02-15 16:51:00,
2013-02-15 11:56:00,49.6,30.7,30.10,West,266,2.0,6.0,48,0.00,,---,0.00,VWS V14.01,2013-02-15 16:56:00,
2013-02-15 12:01:00,50.1,31.2,30.10,WNW,299,2.0,2.0,48,0.00,,---,0.00,VWS V14.01,2013-02-15 17:01:00,
2013-02-15 12:06:00,51.4,31.3,30.10,West,280,3.0,3.0,46,0.00,,---,0.00,VWS V14.01,2013-02-15 17:06:00,
2013-02-15 12:11:00,49.8,29.9,30.09,West,271,2.0,2.0,46,0.00,,---,0.00,VWS V14.01,2013-02-15 17:11:00,
2013-02-15 12:16:00,50.3,30.9,30.09,NW,313,1.0,2.0,47,0.00,,---,0.00,VWS V14.01,2013-02-15 17:16:00,
2013-02-15 12:21:00,51.0,31.5,30.09,WSW,251,4.0,6.0,47,0.00,,---,0.00,VWS V14.01,2013-02-15 17:21:00,
2013-02-15 12:26:00,51.4,32.9,30.09,WNW,282,1.0,5.0,49,0.00,,---,0.00,VWS V14.01,2013-02-15 17:26:00,
2013-02-15 12:31:00,50.8,31.8,30.09,WSW,239,2.0,5.0,48,0.00,,---,0.00,VWS V14.01,2013-02-15 17:31:00,
2013-02-15 12:36:00,52.3,33.7,30.09,WSW,256,2.0,5.0,49,0.00,,---,0.00,VWS V14.01,2013-02-15 17:36:00,
2013-02-15 12:41:00,51.7,30.5,30.08,West,266,0.0,2.0,44,0.00,,---,0.00,VWS V14.01,2013-02-15 17:41:00,
2013-02-15 12:46:00,50.3,30.9,30.08,ENE,58,2.0,2.0,47,0.00,,---,0.00,VWS V14.01,2013-02-15 17:46:00,
2013-02-15 12:51:00,51.7,32.1,30.08,WSW,239,2.0,3.0,47,0.00,,---,0.00,VWS V14.01,2013-02-15 17:51:00,
2013-02-15 12:56:00,51.6,29.9,30.07,WSW,242,1.0,5.0,43,0.00,,---,0.00,VWS V14.01,2013-02-15 17:56:00,
2013-02-15 13:01:00,49.2,28.2,30.07,WSW,248,3.0,6.0,44,0.00,,---,0.00,VWS V14.01,2013-02-15 18:01:00,
2013-02-15 13:06:00,46.6,29.5,30.07,West,274,2.0,2.0,51,0.00,,---,0.00,VWS V14.01,2013-02-15 18:06:00,
2013-02-15 13:11:00,48.0,30.3,30.06,WSW,255,3.0,3.0,50,0.00,,---,0.00,VWS V14.01,2013-02-15 18:11:00,
2013-02-15 13:16:00,47.4,28.2,30.06,WSW,251,3.0,4.0,47,0.00,,---,0.00,VWS V14.01,2013-02-15 18:16:00,
2013-02-15 13:21:00,49.3,31.0,30.06,SW,232,4.0,4.0,49,0.00,,---,0.00,VWS V14.01,2013-02-15 18:21:00,
2013-02-15 13:26:00,52.3,30.5,30.05,SSW,207,1.0,3.0,43,0.00,,---,0.00,VWS V14.01,2013-02-15 18:26:00,
2013-02-15 13:31:00,50.0,29.5,30.05,West,264,2.0,3.0,45,0.00,,---,0.00,VWS V14.01,2013-02-15 18:31:00,
2013-02-15 13:36:00,47.6,28.4,30.05,West,261,3.0,3.0,47,0.00,,---,0.00,VWS V14.01,2013-02-15 18:36:00,
2013-02-15 13:41:00,46.5,27.9,30.05,WSW,242,1.0,1.0,48,0.00,,---,0.00,VWS V14.01,2013-02-15 18:41:00,
2013-02-15 13:46:00,46.1,29.0,30.05,WSW,247,1.0,3.0,51,0.00,,---,0.00,VWS V14.01,2013-02-15 18:46:00,
2013-02-15 13:51:00,50.9,30.9,30.04,West,277,3.0,6.0,46,0.00,,---,0.00,VWS V14.01,2013-02-15 18:51:00,
2013-02-15 13:56:00,49.5,28.0,30.04,WSW,258,2.0,4.0,43,0.00,,---,0.00,VWS V14.01,2013-02-15 18:56:00,
2013-02-15 14:01:00,47.8,28.0,30.04,WSW,237,1.0,3.0,46,0.00,,---,0.00,VWS V14.01,2013-02-15 19:01:00,
2013-02-15 14:06:00,49.5,30.1,30.03,WNW,286,3.0,3.0,47,0.00,,---,0.00,VWS V14.01,2013-02-15 19:06:00,
2013-02-15 14:11:00,48.5,28.7,30.03,WSW,238,9.0,9.0,46,0.00,,---,0.00,VWS V14.01,2013-02-15 19:11:00,
2013-02-15 14:16:00,46.7,28.1,30.03,NW,304,1.0,1.0,48,0.00,,---,0.00,VWS V14.01,2013-02-15 19:16:00,
2013-02-15 14:21:00,45.6,27.6,30.03,NW,307,0.0,3.0,49,0.00,,---,0.00,VWS V14.01,2013-02-15 19:21:00,
2013-02-15 14:26:00,48.5,29.2,30.02,WNW,287,1.0,3.0,47,0.00,,---,0.00,VWS V14.01,2013-02-15 19:26:00,
2013-02-15 14:31:00,50.8,29.7,30.02,NNW,332,0.0,1.0,44,0.00,,---,0.00,VWS V14.01,2013-02-15 19:31:00,
2013-02-15 14:36:00,50.1,29.6,30.02,West,260,2.0,2.0,45,0.00,,---,0.00,VWS V14.01,2013-02-15 19:36:00,
2013-02-15 14:41:00,51.8,31.1,30.01,WSW,257,2.0,4.0,45,0.00,,---,0.00,VWS V14.01,2013-02-15 19:41:00,
2013-02-15 14:46:00,50.7,28.5,30.01,WSW,248,3.0,6.0,42,0.00,,---,0.00,VWS V14.01,2013-02-15 19:46:00,
2013-02-15 14:51:00,48.3,28.0,30.01,WNW,291,3.0,8.0,45,0.00,,---,0.00,VWS V14.01,2013-02-15 19:51:00,
2013-02-15 14:56:00,48.6,29.3,30.01,WSW,239,4.0,4.0,47,0.00,,---,0.00,VWS V14.01,2013-02-15 19:56:00,
2013-02-15 15:01:00,47.9,29.2,30.01,West,276,1.0,1.0,48,0.00,,---,0.00,VWS V14.01,2013-02-15 20:01:00,
2013-02-15 15:06:00,47.0,29.3,30.01,NNE,18,1.0,3.0,50,0.00,,---,0.00,VWS V14.01,2013-02-15 20:06:00,
2013-02-15 15:11:00,47.2,29.5,30.01,WNW,282,2.0,4.0,50,0.00,,---,0.00,VWS V14.01,2013-02-15 20:11:00,
2013-02-15 15:16:00,46.8,29.6,30.01,WSW,254,1.0,4.0,51,0.00,,---,0.00,VWS V14.01,2013-02-15 20:16:00,
2013-02-15 15:21:00,46.7,29.1,30.00,West,280,2.0,6.0,50,0.00,,---,0.00,VWS V14.01,2013-02-15 20:21:00,
2013-02-15 15:26:00,46.2,29.1,30.00,WSW,248,2.0,5.0,51,0.00,,---,0.00,VWS V14.01,2013-02-15 20:26:00,
2013-02-15 15:31:00,45.4,28.8,30.00,West,261,3.0,5.0,52,0.00,,---,0.00,VWS V14.01,2013-02-15 20:31:00,
2013-02-15 15:36:00,45.0,28.9,30.01,WSW,238,2.0,7.0,53,0.00,,---,0.00,VWS V14.01,2013-02-15 20:36:00,
2013-02-15 15:41:00,44.9,29.3,30.01,West,280,1.0,4.0,54,0.00,,---,0.00,VWS V14.01,2013-02-15 20:41:00,
2013-02-15 15:47:00,44.8,28.3,30.00,NW,307,2.0,4.0,52,0.00,,---,0.00,VWS V14.01,2013-02-15 20:47:00,
2013-02-15 15:52:00,45.2,29.1,30.00,West,279,0.0,2.0,53,0.00,,---,0.00,VWS V14.01,2013-02-15 20:52:00,
2013-02-15 15:57:00,44.8,28.7,30.00,NW,311,1.0,3.0,53,0.00,,---,0.00,VWS V14.01,2013-02-15 20:57:00,
2013-02-15 16:02:00,44.3,28.3,30.00,NW,324,0.0,4.0,53,0.00,,---,0.00,VWS V14.01,2013-02-15 21:02:00,
2013-02-15 16:07:00,44.2,28.6,30.00,WNW,291,0.0,1.0,54,0.00,,---,0.00,VWS V14.01,2013-02-15 21:07:00,
2013-02-15 16:12:00,44.2,28.6,30.00,WNW,295,2.0,3.0,54,0.00,,---,0.00,VWS V14.01,2013-02-15 21:12:00,
2013-02-15 16:17:00,44.5,28.9,30.00,West,270,0.0,2.0,54,0.00,,---,0.00,VWS V14.01,2013-02-15 21:17:00,
2013-02-15 16:22:00,45.1,29.5,30.00,West,275,0.0,0.0,54,0.00,,---,0.00,VWS V14.01,2013-02-15 21:22:00,
2013-02-15 16:27:00,45.7,29.1,30.00,WSW,258,1.0,3.0,52,0.00,,---,0.00,VWS V14.01,2013-02-15 21:27:00,
2013-02-15 16:32:00,45.4,29.7,30.00,West,275,2.0,3.0,54,0.00,,---,0.00,VWS V14.01,2013-02-15 21:32:00,
2013-02-15 16:37:00,45.1,29.0,30.01,WSW,253,0.0,2.0,53,0.00,,---,0.00,VWS V14.01,2013-02-15 21:37:00,
2013-02-15 16:42:00,44.6,29.0,30.01,West,280,0.0,1.0,54,0.00,,---,0.00,VWS V14.01,2013-02-15 21:42:00,
2013-02-15 16:47:00,43.9,28.4,30.01,West,276,1.0,6.0,54,0.00,,---,0.00,VWS V14.01,2013-02-15 21:47:00,
2013-02-15 16:52:00,43.4,28.8,30.01,WSW,244,4.0,6.0,56,0.00,,---,0.00,VWS V14.01,2013-02-15 21:52:00,
2013-02-15 16:57:00,43.4,29.2,30.01,WSW,256,2.0,4.0,57,0.00,,---,0.00,VWS V14.01,2013-02-15 21:57:00,
2013-02-15 17:02:00,43.1,28.9,30.01,WSW,258,2.0,2.0,57,0.00,,---,0.00,VWS V14.01,2013-02-15 22:02:00,
2013-02-15 17:06:00,42.8,29.1,30.01,West,273,3.0,3.0,58,0.00,,---,0.00,VWS V14.01,2013-02-15 22:06:00,
2013-02-15 17:11:00,42.5,28.8,30.01,NW,313,3.0,3.0,58,0.00,,---,0.00,VWS V14.01,2013-02-15 22:11:00,
2013-02-15 17:17:00,42.3,29.8,30.01,West,264,1.0,2.0,61,0.00,,---,0.00,VWS V14.01,2013-02-15 22:17:00,
2013-02-15 17:22:00,42.0,29.5,30.01,West,272,0.0,1.0,61,0.00,,---,0.00,VWS V14.01,2013-02-15 22:22:00,
2013-02-15 17:27:00,41.8,29.8,30.01,WNW,303,1.0,5.0,62,0.00,,---,0.00,VWS V14.01,2013-02-15 22:27:00,
2013-02-15 17:32:00,41.6,30.0,30.01,WNW,284,3.0,3.0,63,0.00,,---,0.00,VWS V14.01,2013-02-15 22:32:00,
2013-02-15 17:37:00,41.4,30.1,30.01,WSW,247,5.0,5.0,64,0.00,,---,0.00,VWS V14.01,2013-02-15 22:37:00,
2013-02-15 17:42:00,41.0,30.9,30.01,WNW,293,0.0,4.0,67,0.00,,---,0.00,VWS V14.01,2013-02-15 22:42:00,
2013-02-15 17:47:00,40.4,31.0,30.01,West,264,2.0,5.0,69,0.00,,---,0.00,VWS V14.01,2013-02-15 22:47:00,
2013-02-15 17:52:00,39.9,31.3,30.02,West,274,8.0,8.0,71,0.00,,---,0.00,VWS V14.01,2013-02-15 22:52:00,
2013-02-15 17:57:00,39.5,31.6,30.02,WSW,254,3.0,5.0,73,0.00,,---,0.00,VWS V14.01,2013-02-15 22:57:00,
2013-02-15 18:02:00,39.1,32.2,30.02,WSW,258,2.0,5.0,76,0.00,,---,0.00,VWS V14.01,2013-02-15 23:02:00,
2013-02-15 18:07:00,38.8,32.5,30.02,WSW,251,2.0,2.0,78,0.00,,---,0.00,VWS V14.01,2013-02-15 23:07:00,
2013-02-15 18:12:00,38.5,32.9,30.03,NW,314,2.0,2.0,80,0.00,,---,0.00,VWS V14.01,2013-02-15 23:12:00,
2013-02-15 18:17:00,38.2,32.9,30.03,NNW,332,2.0,5.0,81,0.00,,---,0.00,VWS V14.01,2013-02-15 23:17:00,
2013-02-15 18:22:00,37.8,33.1,30.03,West,267,2.0,4.0,83,0.00,,---,0.00,VWS V14.01,2013-02-15 23:22:00,
2013-02-15 18:27:00,37.4,33.3,30.03,NW,309,2.0,4.0,85,0.00,,---,0.00,VWS V14.01,2013-02-15 23:27:00,
2013-02-15 18:32:00,37.0,33.5,30.03,WNW,282,5.0,5.0,87,0.00,,---,0.00,VWS V14.01,2013-02-15 23:32:00,
2013-02-15 18:37:00,36.7,33.5,30.03,WNW,296,4.0,4.0,88,0.00,,---,0.00,VWS V14.01,2013-02-15 23:37:00,
2013-02-15 18:42:00,36.4,33.5,30.03,NW,309,2.0,4.0,89,0.00,,---,0.00,VWS V14.01,2013-02-15 23:42:00,
2013-02-15 18:47:00,36.2,33.6,30.02,WNW,289,3.0,6.0,90,0.00,,---,0.00,VWS V14.01,2013-02-15 23:47:00,
2013-02-15 18:52:00,35.9,33.5,30.02,WNW,291,3.0,5.0,91,0.00,,---,0.00,VWS V14.01,2013-02-15 23:52:00,
2013-02-15 18:57:00,35.8,33.7,30.02,WNW,283,0.0,2.0,92,0.00,,---,0.00,VWS V14.01,2013-02-15 23:57:00,
2013-02-15 19:02:00,35.7,33.6,30.02,NW,306,2.0,4.0,92,0.00,,---,0.00,VWS V14.01,2013-02-16 00:02:00,
2013-02-15 19:07:00,35.6,33.8,30.02,WNW,297,2.0,3.0,93,0.00,,---,0.00,VWS V14.01,2013-02-16 00:07:00,
2013-02-15 19:12:00,35.6,33.8,30.02,WNW,293,0.0,3.0,93,0.01,,---,0.01,VWS V14.01,2013-02-16 00:12:00,
2013-02-15 19:17:00,35.6,34.0,30.02,NW,312,0.0,3.0,94,0.01,,---,0.01,VWS V14.01,2013-02-16 00:17:00,
2013-02-15 19:22:00,35.5,34.0,30.02,WNW,283,1.0,2.0,94,0.01,,---,0.01,VWS V14.01,2013-02-16 00:22:00,
2013-02-15 19:27:00,35.5,34.0,30.02,WNW,302,0.0,2.0,94,0.01,,---,0.01,VWS V14.01,2013-02-16 00:27:00,
2013-02-15 19:32:00,35.5,34.2,30.02,WNW,303,0.0,3.0,95,0.01,,---,0.01,VWS V14.01,2013-02-16 00:32:00,
2013-02-15 19:37:00,35.3,34.0,30.02,WNW,301,1.0,2.0,95,0.01,,---,0.01,VWS V14.01,2013-02-16 00:37:00,
2013-02-15 19:42:00,35.2,33.9,30.02,WNW,302,0.0,3.0,95,0.01,,---,0.01,VWS V14.01,2013-02-16 00:42:00,
2013-02-15 19:47:00,35.1,33.8,30.02,West,281,2.0,3.0,95,0.01,,---,0.01,VWS V14.01,2013-02-16 00:47:00,
2013-02-15 19:52:00,35.1,33.8,30.02,NNW,328,2.0,3.0,95,0.01,,---,0.01,VWS V14.01,2013-02-16 00:52:00,
2013-02-15 19:57:00,34.8,33.5,30.02,WNW,283,0.0,4.0,95,0.01,,---,0.01,VWS V14.01,2013-02-16 00:57:00,
2013-02-15 20:02:00,34.8,33.8,30.01,NW,307,2.0,3.0,96,0.01,,---,0.01,VWS V14.01,2013-02-16 01:02:00,
2013-02-15 20:07:00,34.7,33.7,30.01,West,272,2.0,4.0,96,0.01,,---,0.01,VWS V14.01,2013-02-16 01:07:00,
2013-02-15 20:12:00,34.7,33.7,30.01,WNW,292,5.0,6.0,96,0.00,,---,0.01,VWS V14.01,2013-02-16 01:12:00,
2013-02-15 20:17:00,34.9,33.9,30.01,NNW,340,1.0,5.0,96,0.00,,---,0.01,VWS V14.01,2013-02-16 01:17:00,
2013-02-15 20:22:00,34.9,33.9,30.01,West,259,3.0,5.0,96,0.00,,---,0.01,VWS V14.01,2013-02-16 01:22:00,
2013-02-15 20:27:00,34.9,33.9,30.01,West,281,3.0,5.0,96,0.00,,---,0.01,VWS V14.01,2013-02-16 01:27:00,
2013-02-15 20:32:00,34.8,33.8,30.01,WNW,297,0.0,3.0,96,0.00,,---,0.01,VWS V14.01,2013-02-16 01:32:00,
2013-02-15 20:37:00,34.8,33.8,30.01,WSW,255,2.0,4.0,96,0.00,,---,0.01,VWS V14.01,2013-02-16 01:37:00,
2013-02-15 20:42:00,34.6,33.3,30.01,WSW,253,6.0,6.0,95,0.00,,---,0.01,VWS V14.01,2013-02-16 01:42:00,
2013-02-15 20:47:00,34.4,33.1,30.01,NW,321,3.0,6.0,95,0.00,,---,0.01,VWS V14.01,2013-02-16 01:47:00,
2013-02-15 20:52:00,34.1,32.8,30.01,WNW,295,1.0,1.0,95,0.00,,---,0.01,VWS V14.01,2013-02-16 01:52:00,
2013-02-15 20:57:00,34.1,32.8,30.00,WSW,249,5.0,5.0,95,0.00,,---,0.01,VWS V14.01,2013-02-16 01:57:00,
2013-02-15 21:02:00,33.7,32.4,30.00,NW,305,3.0,5.0,95,0.00,,---,0.01,VWS V14.01,2013-02-16 02:02:00,
2013-02-15 21:07:00,33.1,31.8,30.00,NW,313,3.0,4.0,95,0.00,,---,0.01,VWS V14.01,2013-02-16 02:07:00,
2013-02-15 21:12:00,32.6,31.3,30.01,WNW,300,1.0,8.0,95,0.00,,---,0.01,VWS V14.01,2013-02-16 02:12:00,
2013-02-15 21:17:00,32.4,31.1,30.01,SW,236,5.0,5.0,95,0.00,,---,0.01,VWS V14.01,2013-02-16 02:17:00,
2013-02-15 21:22:00,32.1,30.6,30.01,NW,322,4.0,6.0,94,0.00,,---,0.01,VWS V14.01,2013-02-16 02:22:00,
2013-02-15 21:27:00,32.0,30.7,30.01,West,273,3.0,5.0,95,0.00,,---,0.01,VWS V14.01,2013-02-16 02:27:00,
2013-02-15 21:32:00,32.0,30.7,30.02,NW,304,4.0,4.0,95,0.00,,---,0.01,VWS V14.01,2013-02-16 02:32:00,
2013-02-15 21:37:00,31.8,30.5,30.02,NW,307,1.0,3.0,95,0.00,,---,0.01,VWS V14.01,2013-02-16 02:37:00,
2013-02-15 21:42:00,31.8,30.5,30.02,NW,308,1.0,3.0,95,0.00,,---,0.01,VWS V14.01,2013-02-16 02:42:00,
2013-02-15 21:47:00,31.6,30.3,30.01,NW,309,0.0,1.0,95,0.00,,---,0.01,VWS V14.01,2013-02-16 02:47:00,
2013-02-15 21:52:00,31.2,29.9,30.02,NW,320,2.0,4.0,95,0.00,,---,0.01,VWS V14.01,2013-02-16 02:52:00,
2013-02-15 21:57:00,31.1,29.8,30.01,WNW,293,2.0,3.0,95,0.00,,---,0.01,VWS V14.01,2013-02-16 02:57:00,
2013-02-15 22:02:00,31.0,30.0,30.01,WNW,297,3.0,3.0,96,0.00,,---,0.01,VWS V14.01,2013-02-16 03:02:00,
2013-02-15 22:07:00,30.8,29.5,30.01,West,281,1.0,3.0,95,0.00,,---,0.01,VWS V14.01,2013-02-16 03:07:00,
2013-02-15 22:12:00,31.0,30.0,30.01,NW,316,1.0,3.0,96,0.00,,---,0.01,VWS V14.01,2013-02-16 03:12:00,
2013-02-15 22:17:00,31.2,30.2,30.01,NW,305,2.0,3.0,96,0.00,,---,0.01,VWS V14.01,2013-02-16 03:17:00,
2013-02-15 22:22:00,31.3,30.5,30.01,NW,312,2.0,4.0,97,0.00,,---,0.01,VWS V14.01,2013-02-16 03:22:00,
2013-02-15 22:27:00,31.4,30.6,30.00,West,268,2.0,4.0,97,0.00,,---,0.01,VWS V14.01,2013-02-16 03:27:00,
2013-02-15 22:32:00,31.4,30.6,30.00,WNW,283,3.0,6.0,97,0.00,,---,0.01,VWS V14.01,2013-02-16 03:32:00,
2013-02-15 22:37:00,31.4,30.6,30.00,WNW,295,3.0,4.0,97,0.00,,---,0.01,VWS V14.01,2013-02-16 03:37:00,
2013-02-15 22:42:00,31.2,30.2,30.00,WSW,252,0.0,6.0,96,0.00,,---,0.01,VWS V14.01,2013-02-16 03:42:00,
2013-02-15 22:48:00,31.0,30.0,30.01,NNW,332,6.0,6.0,96,0.00,,---,0.01,VWS V14.01,2013-02-16 03:48:00,
2013-02-15 22:53:00,30.7,29.7,30.01,NW,309,3.0,5.0,96,0.00,,---,0.01,VWS V14.01,2013-02-16 03:53:00,
2013-02-15 22:58:00,30.5,29.5,30.01,WNW,301,1.0,2.0,96,0.00,,---,0.01,VWS V14.01,2013-02-16 03:58:00,
2013-02-15 23:03:00,30.3,29.3,30.00,WSW,251,2.0,5.0,96,0.00,,---,0.01,VWS V14.01,2013-02-16 04:03:00,
2013-02-15 23:08:00,30.3,29.3,30.00,NW,306,3.0,5.0,96,0.00,,---,0.01,VWS V14.01,2013-02-16 04:08:00,
2013-02-15 23:13:00,30.1,29.1,30.00,NW,315,4.0,4.0,96,0.00,,---,0.01,VWS V14.01,2013-02-16 04:13:00,
2013-02-15 23:18:00,29.9,28.9,30.00,NW,316,3.0,4.0,96,0.00,,---,0.01,VWS V14.01,2013-02-16 04:18:00,
2013-02-15 23:23:00,29.8,28.8,29.99,NW,306,4.0,5.0,96,0.00,,---,0.01,VWS V14.01,2013-02-16 04:23:00,
2013-02-15 23:28:00,29.7,28.7,29.99,WNW,282,2.0,5.0,96,0.00,,---,0.01,VWS V14.01,2013-02-16 04:28:00,
2013-02-15 23:33:00,29.6,28.6,29.98,NW,312,3.0,4.0,96,0.00,,---,0.01,VWS V14.01,2013-02-16 04:33:00,
2013-02-15 23:38:00,29.6,28.4,29.98,NW,314,1.0,4.0,95,0.00,,---,0.01,VWS V14.01,2013-02-16 04:38:00,
2013-02-15 23:43:00,29.3,28.0,29.98,WNW,299,2.0,5.0,95,0.00,,---,0.01,VWS V14.01,2013-02-16 04:43:00,
2013-02-15 23:48:00,29.2,28.0,29.98,WNW,282,2.0,4.0,95,0.00,,---,0.01,VWS V14.01,2013-02-16 04:48:00,
2013-02-15 23:53:00,29.2,28.0,29.98,NW,326,1.0,4.0,95,0.00,,---,0.01,VWS V14.01,2013-02-16 04:53:00,
2013-02-15 23:58:00,29.3,28.3,29.97,WSW,253,5.0,6.0,96,0.00,,---,0.01,VWS V14.01,2013-02-16 04:58:00,